Home   Weather   Setúbal   Past weeks

Flag for Portugal Past Weather in Setúbal, Portugal — Yesterday and Last 2 Weeks

Now
59 °F

Clear.


Feels Like: 57 °F
Forecast: 53 / 60 °F
Wind: 12 mph from Northwest

Location: Lisbon Portela Airport

Current Time: Apr 27, 2017 at 11:43:37 pm

Latest Report: Apr 27, 2017 at 11:00 pm


Visibility: 10 mi

Pressure: 29.83 "Hg

Humidity: 48%

Dew Point: 39 °F

Location of SetúbalLocation

Past Weather in Setúbal — Graph

°F

Setúbal Temperature Yesterday

Maximum temperature yesterday: 63 °F (at 11:30 am)
Minimum temperature yesterday: 54 °F (at 6:00 am)
Average temperature yesterday: 58 °F

High & Low Weather Summary for the Past Weeks

 TemperatureHumidityPressure
High81 °F (Apr 17, 3:30 pm)94% (Apr 13, 6:30 am)30.18 "Hg (Apr 13, 6:30 am)
Low46 °F (Apr 27, 7:00 am)16% (Apr 17, 4:00 pm)29.77 "Hg (Apr 19, 3:30 am)
Average64 °F65%29.99 "Hg
* Reported Apr 12 10:00 pm — Apr 27 10:30 pm, Setúbal, Weather by CustomWeather, © 2017

Note: Actual official high and low records may vary slightly from our data, if they occured in-between our weather recording intervals... More about our weather records

Advertising

Setúbal Weather History for the Previous 24 Hours

Scroll right to see more
 ConditionsComfort  
Time TempWeatherWind HumidityBarometerVisibility
10:30 pm
Thu, Apr 27
57 °FClear.12 mph51%29.83 "Hg10 mi
10:00 pm57 °FClear.13 mph55%29.83 "Hg10 mi
9:30 pm59 °FClear.14 mph51%29.83 "Hg10 mi
9:00 pm59 °FClear.14 mph51%29.83 "Hg10 mi
8:30 pm59 °FClear.15 mph51%29.80 "Hg10 mi
8:00 pm61 °FSunny.14 mph45%29.80 "Hg10 mi
7:30 pm63 °FSunny.14 mph45%29.80 "Hg10 mi
7:00 pm64 °FSunny.15 mph43%29.80 "Hg10 mi
6:30 pm68 °FPassing clouds.13 mph28%29.80 "HgN/A
6:00 pm68 °FPassing clouds.10 mph28%29.80 "HgN/A
5:30 pm68 °FPassing clouds.10 mph28%29.80 "HgN/A
5:00 pm70 °FPassing clouds.8 mph29%29.80 "HgN/A
4:30 pm68 °FPassing clouds.10 mph30%29.83 "HgN/A
4:00 pm68 °FPassing clouds.9 mph28%29.83 "HgN/A
3:30 pm68 °FPassing clouds.8 mph30%29.83 "HgN/A
3:00 pm66 °FPassing clouds.9 mph32%29.86 "HgN/A
2:30 pm64 °FSunny.3 mph32%29.86 "Hg10 mi
1:30 pm64 °FPassing clouds.10 mph34%29.86 "HgN/A
1:00 pm63 °FPassing clouds.12 mph39%29.89 "HgN/A
12:30 pm61 °FSunny.14 mph42%29.89 "Hg10 mi
12:00 pm61 °FPassing clouds.14 mph42%29.89 "HgN/A
11:30 am59 °FPassing clouds.14 mph45%29.89 "HgN/A
11:00 am57 °FPassing clouds.16 mph44%29.89 "HgN/A
10:30 am57 °FSunny.14 mph48%29.89 "Hg10 mi
10:00 am55 °FPassing clouds.13 mph51%29.89 "HgN/A
9:30 am55 °FPassing clouds.13 mph55%29.89 "HgN/A
9:00 am54 °FPassing clouds.12 mph54%29.89 "HgN/A
8:30 am54 °FSunny.13 mph54%29.86 "Hg10 mi
8:00 am52 °FSunny.13 mph58%29.86 "Hg10 mi
7:30 am50 °FSunny.9 mph67%29.86 "Hg10 mi
7:00 am46 °FSunny.6 mph76%29.83 "Hg10 mi
6:30 am48 °FClear.8 mph71%29.83 "Hg10 mi
5:30 am50 °FClear.10 mph67%29.83 "Hg10 mi
4:30 am54 °FClear.10 mph67%29.83 "Hg10 mi
4:00 am55 °FPassing clouds.5 mph63%29.83 "HgN/A
3:30 am55 °FPassing clouds.6 mph67%29.83 "HgN/A
2:30 am55 °FPassing clouds.5 mph63%29.83 "HgN/A
2:00 am55 °FClear.6 mph63%29.86 "Hg10 mi
1:30 am55 °FClear.6 mph63%29.86 "Hg10 mi
1:00 am55 °FClear.5 mph63%29.86 "Hg10 mi
12:30 am54 °FPassing clouds.5 mph67%29.86 "HgN/A
12:00 am55 °FClear.5 mph63%29.86 "Hg10 mi
11:30 pm
Wed, Apr 26
55 °FPassing clouds.3 mph63%29.86 "HgN/A
Weather by CustomWeather, © 2017

See weather overviewHow to use our weather pages